Tracking 22779 objects as of 13-Apr-2021
HD Live streaming from Space Station
objects crossing your sky now

SBS 6

Track SBS 6 now!
SBS 6 is classified as:


NORAD ID: 20872
Int'l Code: 1990-091A
Perigee: 36,118.2 km
Apogee: 36,193.1 km
Inclination: 9.8 °
Period: 1,454.6 minutes
Semi major axis: 42526 km
RCS: 24.6021 m2 (large)
Launch date: October 12, 1990
Source: United States (US)
Launch site: FRENCH GUIANA (FRGUI)
aabbcc
Your satellite tracking list
Your tracking list is empty




NASA's NSSDC Master Catalog

Two Line Element Set (TLE):
1 20872U 90091A   21102.09421275 -.00000159  00000-0  00000-0 0  9990
2 20872   9.8338  41.1630 0008809  44.7597 154.5523  0.98994488 27360
Source of the keplerian elements: AFSPC